Location: Unspecified
(0.0000°N, 0.0000°E)
Time: 13:40:12
(UTC+00:00)

Vanguard 3 - Pass Details

Date: 19 November 2019
Orbit: 508 x 3263 km, 33.3° (Epoch: 08 December)

Event Time Altitude Azimuth Distance (km) Brightness Sun altitude
Rises 21:29:16 0° 310° (NW) 5,181 11.4 -51.3°
Enters shadow 21:32:28 - 313° (NW) 4,075 10.8 -52.0°
Reaches altitude 10° 21:33:29 10° 314° (NW) 3,715 - -52.2°
Maximum altitude 21:42:03 60° 31° (NNE) 1,111 - -54.0°
Drops below altitude 10° 21:47:01 10° 112° (ESE) 2,202 - -55.0°
Sets 21:48:58 0° 116° (ESE) 2,945 - -55.4°
